Weather History for PASI - October, 2012

Change the Weather History Date:

Thursday, October 11, 2012

  Actual Average Record
Temperature  
Mean Temperature 48 °F -  
Max Temperature 53 °F 52 °F - (-1)
Min Temperature 46 °F 43 °F - (-1)
Degree Days  
Heating Degree Days 16    
Moisture  
Dew Point 44 °F    
Average Humidity 85    
Maximum Humidity 97    
Minimum Humidity 63    
Precipitation  
Precipitation 0.00 in - - ()
Sea Level Pressure  
Sea Level Pressure 29.67 in    
Wind  
Wind Speed 3 mph (NNW)    
Max Wind Speed 13 mph    
Max Gust Speed 22 mph    
Visibility 10 miles    
Events Rain    
Averages and records for this station are not official NWS values.
T = Trace of Precipitation, MM = Missing Value Source: NWS Daily Summary

Daily Weather History Graph

Daily Weather History Graph

Search for Another Location

Airport or City:

Trip Planner

Search our weather history database for the weather conditions in past years. The results will help you decide how hot, cold, wet, or windy it might be!

Date:

Astronomy

Oct. 11, 2012 Rise Set
Actual Time 7:27 AM AKDT 6:07 PM AKDT
Civil Twilight 6:49 AM AKDT 6:45 PM AKDT
Nautical Twilight 6:04 AM AKDT 7:29 PM AKDT
Astronomical Twilight 5:19 AM AKDT 8:14 PM AKDT
Moon 2:29 AM AKDT (10/11) 4:24 PM AKDT (10/11)
Length of Visible Light 11h 56m
Length of Day
10h 39m
Waning Crescent, 17% of the Moon is Illuminated
Oct 11
Waning Crescent
Oct 15
New
Oct 21
First Quarter
Oct 29
Full
Nov 6
Last Quarter

Hourly Weather History & Observations

Time (AKDT) Temp. Windchill Dew Point Humidity Pressure Visibility Wind Dir Wind Speed Gust Speed Precip Events Conditions
12:53 AM 46.9 °F - 46.0 °F 97% 29.88 in 10.0 mi East 3.5 mph - N/A   Overcast
1:53 AM 46.9 °F - 46.0 °F 97% 29.87 in 10.0 mi Calm Calm - N/A   Overcast
2:50 AM 46.4 °F - 44.6 °F 93% 29.84 in 10.0 mi Calm Calm - N/A   Overcast
2:53 AM 46.9 °F - 45.0 °F 93% 29.84 in 10.0 mi Calm Calm - N/A   Overcast
3:53 AM 46.9 °F - 45.0 °F 93% 29.83 in 10.0 mi East 3.5 mph - N/A   Overcast
4:53 AM 46.0 °F - 45.0 °F 96% 29.80 in 10.0 mi Calm Calm - N/A   Overcast
5:53 AM 46.0 °F 43.9 °F 44.1 °F 93% 29.78 in 10.0 mi ENE 4.6 mph - N/A   Mostly Cloudy
6:53 AM 46.0 °F 44.8 °F 44.1 °F 93% 29.78 in 10.0 mi NNE 3.5 mph - N/A   Overcast
7:53 AM 46.0 °F 43.9 °F 44.1 °F 93% 29.77 in 10.0 mi ENE 4.6 mph - N/A   Overcast
8:53 AM 46.9 °F - 45.0 °F 93% 29.74 in 10.0 mi Calm Calm - N/A   Scattered Clouds
9:53 AM 48.0 °F - 45.0 °F 89% 29.74 in 10.0 mi WNW 4.6 mph - N/A   Overcast
10:53 AM 48.9 °F - 45.0 °F 86% 29.73 in 10.0 mi Calm Calm - N/A   Overcast
11:53 AM 50.0 °F - 44.6 °F 82% 29.70 in 10.0 mi Variable 6.9 mph - N/A Rain Light Rain
12:53 PM 50.0 °F - 46.0 °F 86% 29.67 in 10.0 mi NW 8.1 mph - 0.00 in   Overcast
1:53 PM 51.1 °F - 43.0 °F 74% 29.65 in 10.0 mi West 3.5 mph - N/A   Overcast
2:53 PM 51.1 °F - 43.0 °F 74% 29.62 in 10.0 mi WNW 5.8 mph - N/A   Overcast
3:53 PM 50.0 °F - 45.0 °F 83% 29.60 in 10.0 mi NW 5.8 mph - N/A   Overcast
4:53 PM 50.0 °F - 44.1 °F 80% 29.57 in 10.0 mi NW 5.8 mph - 0.00 in   Overcast
5:53 PM 50.0 °F - 44.1 °F 80% 29.55 in 10.0 mi Calm Calm - N/A   Overcast
6:53 PM 48.9 °F - 44.1 °F 83% 29.52 in 10.0 mi NW 5.8 mph - 0.00 in   Overcast
7:53 PM 50.0 °F - 44.1 °F 80% 29.49 in 10.0 mi NNW 3.5 mph - N/A   Overcast
8:53 PM 50.0 °F - 44.1 °F 80% 29.46 in 10.0 mi WNW 4.6 mph - N/A   Overcast
9:53 PM 48.9 °F - 43.0 °F 80% 29.43 in 10.0 mi Variable 4.6 mph - N/A   Overcast
10:53 PM 50.0 °F - 42.1 °F 74% 29.40 in 10.0 mi WNW 3.5 mph - N/A   Overcast
11:53 PM 52.0 °F - 39.9 °F 63% 29.37 in 10.0 mi ESE 12.7 mph 21.9 mph N/A   Overcast